TimeCEST,TemperatureF,Dew PointF,Humidity,Sea Level PressureIn,VisibilityMPH,Wind Direction,Wind SpeedMPH,Gust SpeedMPH,PrecipitationIn,Events,Conditions,WindDirDegrees,DateUTC
12:15 AM,62.6,55.4,77,30.15,-9999.0,Calm,Calm,-,N/A,,Clear,0,2013-07-17 22:15:00
12:45 AM,62.6,53.6,72,30.15,-9999.0,Calm,Calm,-,N/A,,Clear,0,2013-07-17 22:45:00
1:15 AM,60.8,53.6,77,30.15,-9999.0,Calm,Calm,-,N/A,,Clear,0,2013-07-17 23:15:00
1:45 AM,60.8,55.4,82,30.15,-9999.0,Calm,Calm,-,N/A,,Clear,0,2013-07-17 23:45:00
2:15 AM,60.8,55.4,82,30.15,-9999.0,Calm,Calm,-,N/A,,Clear,0,2013-07-18 00:15:00
2:45 AM,59.0,53.6,82,30.15,-9999.0,Calm,Calm,-,N/A,,Clear,0,2013-07-18 00:45:00
3:15 AM,59.0,53.6,82,30.15,-9999.0,Calm,Calm,-,N/A,,Clear,0,2013-07-18 01:15:00
3:45 AM,-9999,-9999,N/A,-9999,5.0,Variable,4.5,-,N/A,,Clear,0,2013-07-18 01:45:00
4:15 AM,59.0,53.6,82,30.15,-9999.0,Calm,Calm,-,N/A,,Clear,0,2013-07-18 02:15:00
4:45 AM,59.0,53.6,82,30.15,-9999.0,Calm,Calm,-,N/A,,Clear,0,2013-07-18 02:45:00
5:15 AM,57.2,53.6,88,30.15,-9999.0,Calm,Calm,-,N/A,,Clear,0,2013-07-18 03:15:00
5:45 AM,57.2,53.6,88,30.15,-9999.0,Calm,Calm,-,N/A,,Clear,0,2013-07-18 03:45:00
6:15 AM,60.8,53.6,77,30.15,-9999.0,Calm,Calm,-,N/A,,Clear,0,2013-07-18 04:15:00
6:45 AM,-9999,-9999,N/A,-9999,6.2,Variable,4.5,-,N/A,Rain,Light Rain Showers,0,2013-07-18 04:45:00
7:15 AM,68.0,55.4,64,30.15,-9999.0,NNE,2.2,-,N/A,,Clear,30,2013-07-18 05:15:00
7:45 AM,69.8,55.4,60,30.15,-9999.0,NE,2.2,-,N/A,,Clear,40,2013-07-18 05:45:00
8:15 AM,73.4,57.2,57,30.18,-9999.0,ENE,6.7,-,N/A,,Clear,60,2013-07-18 06:15:00
8:45 AM,75.2,55.4,50,30.18,-9999.0,NE,6.7,-,N/A,,Clear,50,2013-07-18 06:45:00
9:15 AM,77.0,55.4,47,30.18,-9999.0,NE,4.5,-,N/A,,Clear,50,2013-07-18 07:15:00
9:45 AM,-9999,-9999,N/A,-9999,6.2,Variable,4.5,-,N/A,Rain,Light Rain Showers,0,2013-07-18 07:45:00
10:15 AM,80.6,53.6,39,30.15,-9999.0,Variable,4.5,-,N/A,,Clear,0,2013-07-18 08:15:00
10:45 AM,80.6,55.4,42,30.15,-9999.0,Variable,4.5,-,N/A,,Clear,0,2013-07-18 08:45:00
11:15 AM,80.6,53.6,39,30.15,-9999.0,Variable,2.2,-,N/A,,Clear,0,2013-07-18 09:15:00
11:45 AM,82.4,55.4,39,30.15,-9999.0,NE,6.7,-,N/A,,Clear,50,2013-07-18 09:45:00
12:15 PM,84.2,53.6,35,30.15,-9999.0,Variable,4.5,-,N/A,,Clear,0,2013-07-18 10:15:00
12:45 PM,-9999,-9999,N/A,-9999,6.2,Variable,4.5,-,N/A,Rain,Light Rain Showers,0,2013-07-18 10:45:00
1:15 PM,84.2,53.6,35,30.15,6.2,Variable,2.2,-,N/A,,Scattered Clouds,0,2013-07-18 11:15:00
1:45 PM,84.2,55.4,37,30.12,6.2,NE,4.5,-,N/A,,Mostly Cloudy,40,2013-07-18 11:45:00
2:15 PM,84.2,51.8,33,30.12,6.2,Variable,4.5,-,N/A,,Scattered Clouds,0,2013-07-18 12:15:00
2:45 PM,84.2,53.6,35,30.12,6.2,NE,6.7,-,N/A,,Scattered Clouds,40,2013-07-18 12:45:00
3:15 PM,86.0,71.6,62,30.12,6.2,Variable,2.2,-,N/A,,Scattered Clouds,0,2013-07-18 13:15:00
3:45 PM,-9999,-9999,N/A,-9999,6.2,Variable,4.5,-,N/A,Rain,Light Rain Showers,0,2013-07-18 13:45:00
4:15 PM,86.0,51.8,31,30.12,6.2,Variable,4.5,-,N/A,,Scattered Clouds,0,2013-07-18 14:15:00
4:45 PM,86.0,51.8,31,30.09,6.2,Variable,4.5,-,N/A,,Scattered Clouds,0,2013-07-18 14:45:00
5:15 PM,84.2,51.8,33,30.09,6.2,ESE,4.5,-,N/A,,Scattered Clouds,110,2013-07-18 15:15:00
5:45 PM,84.2,51.8,33,30.09,-9999.0,East,4.5,-,N/A,,Clear,100,2013-07-18 15:45:00
6:15 PM,84.2,51.8,33,30.09,-9999.0,NE,6.7,-,N/A,,Clear,50,2013-07-18 16:15:00
6:45 PM,82.4,53.6,37,30.09,-9999.0,ENE,2.2,-,N/A,,Clear,60,2013-07-18 16:45:00
7:15 PM,80.6,55.4,42,30.09,-9999.0,ENE,4.5,-,N/A,,Clear,60,2013-07-18 17:15:00
7:45 PM,78.8,53.6,42,30.09,-9999.0,ENE,2.2,-,N/A,,Clear,60,2013-07-18 17:45:00
8:15 PM,75.2,57.2,53,30.09,-9999.0,Calm,Calm,-,N/A,,Clear,0,2013-07-18 18:15:00
8:45 PM,71.6,57.2,60,30.09,-9999.0,NNE,2.2,-,N/A,,Clear,20,2013-07-18 18:45:00
9:15 PM,73.4,57.2,57,30.09,-9999.0,Calm,Calm,-,N/A,,Clear,0,2013-07-18 19:15:00
9:45 PM,71.6,55.4,57,30.12,-9999.0,SSW,4.5,-,N/A,,Clear,200,2013-07-18 19:45:00
10:15 PM,69.8,55.4,60,30.12,-9999.0,Calm,Calm,-,N/A,,Clear,0,2013-07-18 20:15:00
10:45 PM,68.0,55.4,64,30.12,-9999.0,Calm,Calm,-,N/A,,Clear,0,2013-07-18 20:45:00
11:15 PM,66.2,55.4,68,30.12,-9999.0,NNE,2.2,-,N/A,,Clear,30,2013-07-18 21:15:00
11:45 PM,66.2,57.2,73,30.12,-9999.0,Calm,Calm,-,N/A,,Clear,0,2013-07-18 21:45:00